Home   Weather   Karlstad   Past weeks

Flag for Sweden Past Weather in Karlstad, Sweden — Yesterday and Last 2 Weeks

Now
34 °F

Fog.


Feels Like: 29 °F
Forecast: 31 / 41 °F
Wind: 6 mph from Southwest

Location: Karlstad

Current Time: Jan 18, 2017 at 11:16:33 am

Latest Report: Jan 18, 2017 at 10:20 am


Visibility: 0 mi

Pressure: 30.30 "Hg

Humidity: 100%

Dew Point: 34 °F

Location of KarlstadLocation

Past Weather in Karlstad — Graph

°F

Karlstad Temperature Yesterday

Maximum temperature yesterday: 34 °F (at 7:50 pm)
Minimum temperature yesterday: 14 °F (at 12:20 am)
Average temperature yesterday: 28 °F

High & Low Weather Summary for the Past Weeks

 TemperatureHumidityPressure
High39 °F (Jan 9, 2:50 pm)100% (Jan 3, 1:20 pm)30.69 "Hg (Jan 3, 1:20 pm)
Low-2 °F (Jan 6, 12:50 am)69% (Jan 6, 3:50 pm)28.53 "Hg (Jan 11, 6:50 pm)
Average26 °F93%29.81 "Hg
* Reported Jan 3 9:20 am — Jan 18 9:50 am, Karlstad, Weather by CustomWeather, © 2017

Note: Actual official high and low records may vary slightly from our data, if they occured in-between our weather recording intervals... More about our weather records

Advertising

Karlstad Weather History for the Previous 24 Hours

Scroll right to see more
 ConditionsComfort  
Time TempWeatherWind HumidityBarometerVisibility
9:50 am
Wed, Jan 18
34 °FFog.6 mph100%30.30 "Hg0 mi
9:20 am34 °FFog.7 mph100%30.30 "Hg0 mi
8:50 am34 °FFog.6 mph100%30.33 "Hg0 mi
8:20 am34 °FFog.5 mph100%30.33 "Hg0 mi
7:50 am34 °FFog.5 mph100%30.33 "Hg0 mi
7:20 am34 °FFog.3 mph100%30.30 "Hg1 mi
6:50 am34 °FFog.2 mph100%30.33 "Hg1 mi
6:20 am34 °FFog.3 mph100%30.33 "Hg1 mi
5:50 am34 °FFog.3 mph100%30.33 "Hg0 mi
5:20 am34 °FLow clouds.3 mph100%30.33 "Hg1 mi
4:50 am34 °FLow clouds.3 mph100%30.33 "Hg1 mi
4:20 am32 °FFog.2 mph100%30.33 "Hg0 mi
3:50 am32 °FFog.No wind100%30.33 "Hg1 mi
3:20 am32 °FFog.No wind100%30.36 "Hg0 mi
2:50 am32 °FFog.1 mph100%30.36 "Hg1 mi
2:20 am32 °FFog.No wind100%30.36 "Hg0 mi
1:50 am32 °FFog.No wind100%30.36 "Hg0 mi
1:20 am34 °FFog.No wind100%30.36 "Hg0 mi
12:50 am34 °FFog.No wind100%30.36 "Hg0 mi
12:20 am34 °FFog.2 mph100%30.36 "Hg1 mi
11:50 pm
Tue, Jan 17
34 °FLow clouds.2 mph100%30.36 "Hg1 mi
11:20 pm34 °FLow clouds.1 mph100%30.36 "Hg3 mi
10:50 pm32 °FFog.1 mph100%30.36 "Hg1 mi
10:20 pm32 °FFog.1 mph100%30.36 "Hg1 mi
9:50 pm34 °FFog.2 mph100%30.36 "Hg1 mi
9:20 pm34 °FFog.5 mph100%30.36 "Hg1 mi
8:50 pm34 °FFog.2 mph100%30.36 "Hg1 mi
8:20 pm34 °FFog.5 mph100%30.36 "Hg1 mi
7:50 pm34 °FFog.5 mph100%30.36 "Hg2 mi
7:20 pm32 °FIce fog.5 mph100%30.36 "Hg3 mi
6:50 pm32 °FLow clouds.6 mph100%30.36 "HgN/A
6:20 pm32 °FLight rain. Passing clouds.5 mph100%30.36 "Hg5 mi
5:50 pm32 °FLight rain. Low clouds.5 mph100%30.36 "Hg3 mi
5:20 pm32 °FLight snow. Low clouds.3 mph100%30.36 "Hg1 mi
4:50 pm32 °FLight snow. Low clouds.3 mph100%30.36 "Hg1 mi
4:20 pm32 °FLight snow. Low clouds.3 mph100%30.36 "Hg2 mi
3:50 pm32 °FLight snow. Low clouds.6 mph100%30.36 "Hg3 mi
3:20 pm32 °FLight snow. Low clouds.5 mph100%30.36 "HgN/A
2:50 pm32 °FLight snow. Low clouds.6 mph100%30.39 "HgN/A
2:20 pm32 °FLow clouds.6 mph100%30.36 "HgN/A
1:50 pm32 °FLow clouds.7 mph100%30.39 "HgN/A
1:20 pm32 °FLow clouds.6 mph100%30.39 "HgN/A
12:50 pm32 °FLow clouds.7 mph93%30.39 "HgN/A
12:20 pm30 °FPartly sunny.8 mph100%30.39 "HgN/A
11:50 am30 °FPartly sunny.7 mph100%30.39 "HgN/A
11:20 am30 °FLow clouds.8 mph100%30.39 "HgN/A
Weather by CustomWeather, © 2017

See weather overviewHow to use our weather pages